Weather History for VTBS - March, 2014

Change the Weather History Date:

Thursday, March 27, 2014

  Actual Average (VTBD) Record (VTBD)
Temperature  
Mean Temperature 88 °F -  
Max Temperature 95 °F 94 °F 100 °F (1997)
Min Temperature 80 °F 78 °F 73 °F (2011)
Cooling Degree Days 22    
Growing Degree Days 38 (Base 50)    
Moisture  
Dew Point 74 °F    
Average Humidity 66    
Maximum Humidity 79    
Minimum Humidity 44    
Precipitation  
Precipitation 0.00 in 0.10 in - ()
Sea Level Pressure  
Sea Level Pressure 29.79 in    
Wind  
Wind Speed 9 mph ()    
Max Wind Speed 17 mph    
Max Gust Speed 26 mph    
Visibility 6.0 miles    
Events      
Averages and records for this station are not official NWS values.
T = Trace of Precipitation, MM = Missing Value Source: Averaged Metar Reports

Daily Weather History Graph

Daily Weather History Graph

Search for Another Location

Airport or City:

Trip Planner

Search our weather history database for the weather conditions in past years. The results will help you decide how hot, cold, wet, or windy it might be!

Date:

Astronomy

Mar. 27, 2014 Rise Set
Actual Time 6:15 AM ICT 6:27 PM ICT
Civil Twilight 5:54 AM ICT 6:48 PM ICT
Nautical Twilight 5:29 AM ICT 7:13 PM ICT
Astronomical Twilight 5:05 AM ICT 7:38 PM ICT
Moon 3:07 AM ICT (3/27) 3:11 PM ICT (3/27)
Length of Visible Light 12h 54m
Length of Day
12h 11m
Waning Crescent, 17% of the Moon is Illuminated
Mar 27
Waning Crescent
Mar 31
New
Apr 7
First Quarter
Apr 15
Full
Apr 22
Last Quarter

Hourly Weather History & Observations

Time (ICT) Temp. Heat Index Dew Point Humidity Pressure Visibility Wind Dir Wind Speed Gust Speed Precip Events Conditions
12:00 AM 82.4 °F 88.2 °F 73.4 °F 74% 29.80 in - South 10.4 mph - N/A   Clear
12:30 AM 82.4 °F 88.2 °F 73.4 °F 74% 29.80 in - SSW 8.1 mph - N/A   Clear
1:00 AM 83 °F - 77 °F 76% 29.79 in 4 mi WSW 3.5 mph - -   Mist
1:00 AM 82.4 °F 88.2 °F 73.4 °F 74% 29.80 in - SSW 11.5 mph - N/A   Clear
1:30 AM 82.4 °F 89.5 °F 75.2 °F 79% 29.80 in - South 8.1 mph - N/A   Clear
2:00 AM 82.4 °F 88.2 °F 73.4 °F 74% 29.80 in - South 9.2 mph - N/A   Clear
2:30 AM 82.4 °F 88.2 °F 73.4 °F 74% 29.77 in - South 10.4 mph - N/A   Clear
3:00 AM 82.4 °F 89.5 °F 75.2 °F 79% 29.77 in 6.2 mi South 11.5 mph - N/A   Scattered Clouds
3:30 AM 82.4 °F 89.5 °F 75.2 °F 79% 29.77 in 6.2 mi South 10.4 mph - N/A   Scattered Clouds
4:00 AM 82 °F - 76 °F 78% 29.77 in 5 mi ESE 4.6 mph - -   Mist
4:00 AM 82.4 °F 89.5 °F 75.2 °F 79% 29.77 in 6.2 mi South 10.4 mph - N/A   Scattered Clouds
4:30 AM 82.4 °F 89.5 °F 75.2 °F 79% 29.77 in 6.2 mi SSW 9.2 mph - N/A   Scattered Clouds
5:00 AM 82.4 °F 89.5 °F 75.2 °F 79% 29.77 in 6.2 mi South 9.2 mph - N/A   Scattered Clouds
5:30 AM 80.6 °F 85.4 °F 73.4 °F 79% 29.80 in 6.2 mi South 8.1 mph - N/A   Scattered Clouds
6:00 AM 82.4 °F 89.5 °F 75.2 °F 79% 29.80 in 6.2 mi South 8.1 mph - N/A   Scattered Clouds
6:30 AM 82.4 °F 89.5 °F 75.2 °F 79% 29.80 in 6.2 mi South 9.2 mph - N/A   Scattered Clouds
7:00 AM 82 °F - 76 °F 78% 29.81 in 5 mi Calm Calm - -   Mist
7:00 AM 82.4 °F 88.2 °F 73.4 °F 74% 29.83 in 6.2 mi South 8.1 mph - N/A   Scattered Clouds
7:30 AM 84.2 °F 90.9 °F 73.4 °F 70% 29.83 in 6.2 mi South 9.2 mph - N/A   Scattered Clouds
8:00 AM 86.0 °F 93.4 °F 73.4 °F 66% 29.86 in 6.2 mi South 10.4 mph - N/A   Scattered Clouds
8:30 AM 86.0 °F 93.4 °F 73.4 °F 66% 29.86 in 6.2 mi South 11.5 mph - N/A   Scattered Clouds
9:00 AM 87.8 °F 95.6 °F 73.4 °F 62% 29.86 in 6.2 mi South 10.4 mph - N/A   Mostly Cloudy
9:30 AM 89.6 °F 99.8 °F 75.2 °F 62% 29.86 in 6.2 mi South 11.5 mph - N/A   Mostly Cloudy
10:00 AM 90 °F - 75 °F 54% 29.86 in 5 mi SE 2.3 mph - -   Haze
10:00 AM 89.6 °F 98.2 °F 73.4 °F 59% 29.86 in 6.2 mi South 11.5 mph - N/A   Mostly Cloudy
10:30 AM 89.6 °F 98.2 °F 73.4 °F 59% 29.86 in 6.2 mi South 10.4 mph - N/A   Mostly Cloudy
11:00 AM 91.4 °F 100.1 °F 73.4 °F 55% 29.86 in 6.2 mi South 10.4 mph - N/A   Scattered Clouds
11:30 AM 91.4 °F 100.1 °F 73.4 °F 55% 29.86 in 6.2 mi South 10.4 mph - N/A   Scattered Clouds
12:00 PM 91.4 °F 100.1 °F 73.4 °F 55% 29.83 in 6.2 mi South 10.4 mph - N/A   Scattered Clouds
12:30 PM 93.2 °F 102.4 °F 73.4 °F 52% 29.83 in 6.2 mi South 10.4 mph - N/A   Scattered Clouds
1:00 PM 94 °F - 79 °F 54% 29.78 in 5 mi SE 3.5 mph - -   Haze
1:00 PM 93.2 °F 100.5 °F 71.6 °F 49% 29.80 in 6.2 mi South 12.7 mph - N/A   Scattered Clouds
1:30 PM 93.2 °F 98.8 °F 69.8 °F 46% 29.77 in 6.2 mi South 11.5 mph - N/A   Scattered Clouds
2:00 PM 93.2 °F 100.5 °F 71.6 °F 49% 29.77 in 6.2 mi South 12.7 mph 25.3 mph N/A   Scattered Clouds
2:30 PM 95.0 °F 103.2 °F 71.6 °F 47% 29.74 in 6.2 mi South 12.7 mph - N/A   Scattered Clouds
3:00 PM 95.0 °F 101.3 °F 69.8 °F 44% 29.74 in 6.2 mi SSW 12.7 mph - N/A   Scattered Clouds
3:30 PM 93.2 °F 100.5 °F 71.6 °F 49% 29.71 in 6.2 mi SSW 13.8 mph - N/A   Scattered Clouds
4:00 PM 93 °F - 76 °F 48% 29.71 in 5 mi ESE 2.3 mph - -   Haze
4:00 PM 93.2 °F 100.5 °F 71.6 °F 49% 29.71 in 6.2 mi SSW 15.0 mph 26.5 mph N/A   Scattered Clouds
4:30 PM 91.4 °F 98.4 °F 71.6 °F 52% 29.71 in 6.2 mi SSW 17.3 mph - N/A   Scattered Clouds
5:00 PM 89.6 °F 98.2 °F 73.4 °F 59% 29.71 in 6.2 mi SSW 16.1 mph - N/A   Scattered Clouds
5:30 PM 89.6 °F 98.2 °F 73.4 °F 59% 29.74 in 6.2 mi SSW 16.1 mph - N/A   Scattered Clouds
6:00 PM 87.8 °F 95.6 °F 73.4 °F 62% 29.74 in 6.2 mi SSW 13.8 mph - N/A   Scattered Clouds
6:30 PM 86.0 °F 93.4 °F 73.4 °F 66% 29.74 in 6.2 mi SSW 12.7 mph - N/A   Scattered Clouds
7:00 PM 88 °F - 77 °F 62% 29.75 in 5 mi Calm Calm - -   Clear
7:00 PM 86.0 °F 93.4 °F 73.4 °F 66% 29.74 in 6.2 mi South 12.7 mph - N/A   Scattered Clouds
7:30 PM 84.2 °F 90.9 °F 73.4 °F 70% 29.77 in 6.2 mi South 11.5 mph - N/A   Scattered Clouds
8:00 PM 84.2 °F 92.3 °F 75.2 °F 74% 29.77 in 6.2 mi SSW 15.0 mph - N/A   Scattered Clouds
8:30 PM 84.2 °F 92.3 °F 75.2 °F 74% 29.80 in 6.2 mi SSW 11.5 mph - N/A   Scattered Clouds
9:00 PM 84.2 °F 92.3 °F 75.2 °F 74% 29.80 in 6.2 mi SSW 11.5 mph - N/A   Scattered Clouds
9:30 PM 84.2 °F 92.3 °F 75.2 °F 74% 29.83 in 6.2 mi South 9.2 mph - N/A   Scattered Clouds
10:00 PM 84 °F - 75 °F 67% 29.81 in 5 mi Calm Calm - -   Mist
10:00 PM 84.2 °F 92.3 °F 75.2 °F 74% 29.83 in 6.2 mi South 13.8 mph - N/A   Scattered Clouds
10:30 PM 84.2 °F 92.3 °F 75.2 °F 74% 29.83 in 6.2 mi South 13.8 mph - N/A   Scattered Clouds
11:00 PM 84.2 °F 92.3 °F 75.2 °F 74% 29.83 in 6.2 mi South 12.7 mph - N/A   Scattered Clouds
11:30 PM 82.4 °F 89.5 °F 75.2 °F 79% 29.83 in 6.2 mi SSW 11.5 mph - N/A   Scattered Clouds